Regional Weather Roundup
Issued by NWS Northern Indiana

Home | Current Version | Previous Version | Text Only | Print | Product List | Glossary Off
Versions: 1 2 3 4 5 6 7 8 9 10 11 12 13 14 15 16 17 18 19 20 21 22 23 24 25 26 27 28 29 30 31 32 33 34 35 36 37 38 39 40 41 42 43 44 45 46 47 48 49 50

000
ASUS43 KIWX 280310
RWRIWX

KIWX WEATHER ROUNDUP
NATIONAL WEATHER SERVICE NORTHERN INDIANA
1100 PM EDT WED JUL 27 2016

NOTE: "FAIR" INDICATES FEW OR NO CLOUDS BELOW 12,000 FEET WITH NO
SIGNIFICANT WEATHER AND/OR OBSTRUCTIONS TO VISIBILITY.

* THESE STATIONS ARE NOT UNDER NWS QUALITY CONTROL. THEY ALSO MAY NOT
  REPORT WEATHER SUCH AS PRECIPITATION OR FOG.

INZ001>027-280400-
NORTHERN INDIANA

CITY           SKY/WX    TMP DP  RH WIND       PRES   REMARKS
GARY*          PTCLDY    75  72  88 CALM      29.95R
VALPARAISO     CLEAR     75  67  76 S3        29.97R
MICHIGAN CITY* MOCLDY    70  68  94 SE3       29.97R
LAPORTE*       MOCLDY    74  72  93 CALM      29.97R
KNOX*          CLEAR     70  64  83 CALM      29.96R
SOUTH BEND     CLEAR     73  67  81 CALM      29.97R
GOSHEN         CLEAR     74  65  73 NE3       29.97R
MONTICELLO*    CLEAR     72  67  84 CALM      29.96R
LOGANSPORT*    CLEAR     72  66  83 CALM      29.97R
ROCHESTER*     MOCLDY    75  72  88 CALM      29.98R
WARSAW*        CLEAR     75  68  78 N3        29.97R
ANGOLA*          N/A     73  64  73 N5        29.97R
FORT WAYNE     PTCLDY    72  65  78 CALM      29.97R
HUNTINGTON*    PTCLDY    73  67  82 CALM      29.97R
PERU/GRISSOM   CLOUDY    75  67  76 W1        29.96R
MARION*        PTCLDY    70  67  89 CALM      29.99R FOG

$$
INZ028>050-280400-
CENTRAL INDIANA

CITY           SKY/WX    TMP DP  RH WIND       PRES   REMARKS
LAFAYETTE      PTCLDY    72  69  90 CALM      29.96R
KOKOMO*        MOCLDY    72  64  78 CALM      29.97R
MUNCIE*        PTCLDY    73  66  78 CALM      29.98R
INDIANAPOLIS   CLOUDY    81  65  58 N7        29.96R

$$
MIZ043>046-050>051-056>058-064>065-071>073-077>080-280400-
SOUTHWEST LOWER MICHIGAN

CITY           SKY/WX    TMP DP  RH WIND       PRES   REMARKS
BATTLE CREEK   CLEAR     72  63  73 E3        29.98R
BENTON HARBOR  PTCLDY    71  65  81 CALM      29.95S
COLDWATER*     CLEAR     71  65  82 CALM      29.97S
HILLSDALE*     CLEAR     71  63  76 CALM      29.98R
HOLLAND        MOCLDY    72  66  81 SE5       29.96R
GRAND RAPIDS   MOCLDY    71  64  78 NE5       29.97R
KALAMAZOO      CLEAR     73  64  73 CALM      29.97R
STURGIS*       CLEAR     72  63  74 NE6       29.97R
THREE RIVERS*  FAIR      73  65  75 CALM      29.98R

$$
OHZ001>008-015>018-024>025-280400-
NORTHWEST OHIO

CITY           SKY/WX    TMP DP  RH WIND       PRES   REMARKS
DEFIANCE       CLOUDY    80  64  58 CALM      29.95R
FINDLAY        CLEAR     79  59  50 E6        29.95R
TOLEDO EXPRESS PTCLDY    73  68  83 CALM      29.96R
TOLEDO METCALF PTCLDY    78  65  63 CALM      29.95R
LIMA           PTCLDY    76  65  68 CALM      29.97R

$$
AND FOR LAKE MICHIGAN COASTAL AND OPEN LAKE BUOY OBSERVATIONS

STATION/POSITION TEMP    WIND        PRES    VSBY  WAVE
                 AIR SEA DIR/SP/G                  HT/PER
                 (F)     (DEG/KT/KT) (MB)    (MI)  (FT/S)
CALUMET HARBOR            60/  3/  3   N/A
MICHIGAN CITY     79      20/  5/  7   N/A
BURNS HARBOR      81     170/  2/ 11 1014.2R
SAINT JOSEPH      76      CALM  /  2 1014.2S
SOUTH LAKE BUOY   75 75  140/  4/  6 1013.7R         1
4 MI NW BRIDGMAN  78 79   70/  8/  8 1013.8R         1
MICHIGAN CITY     78 78  150/  4/  4   N/A           0

$$
&&




USA.gov is the U.S. government's official web portal to all federal, state and local government web resources and services.